星链-1640 (STARLINK-1640 )

导读 | 豆包AI

STARLINK-1640是美国SpaceX公司星链星座中的一颗卫星,于2020年8月18日发射入轨。星链计划旨在构建全球卫星互联网,为全球范围提供高速网络接入服务。该卫星运行在近地轨道,属于SpaceX大规模低轨卫星组网项目中的一员,助力实现全球无缝覆盖的通信网络目标。

基本信息
目录编号:
46173
目录名称:
STARLINK-1640
国际标识:
2020-057BJ
轨道中心:
EARTH
卫星名称:
星链-1640
卫星全名:
星链-1640 (STARLINK-1640 )
卫星状态:
在轨 (已飞行2081 天)
发射日期:
2020-08-18 UTC
国别 :
美国 (US)
星等 :
--
轨道信息
数据来源 国际轨道数据
星历时间: 2026-04-30T12:08:02+0800
5小时前
查看轨道信息
半长轴: 6750.799km
偏心率: 0.0002675
轨道倾角: 53.045°
近地点辐角 48.308°
升交点赤经 48.500°
平近点角 311.816°
近地点: 370.856km
远地点: 374.468km
周期: 92.001分钟
每日圈数: 15.652007
详细信息
固有亮度:
5
最大亮度:
2.5
卫星平台:
Starlink V1.0
覆盖范围:
全球
运营商:
太空探索技术公司
运营商所在国:
美国
制造商(研发单位):
太空探索技术公司
制造商所在国:
美国
使用方式:
暂无
卫星简介
星链(Starlink)计划是由太空探索技术公司(SpaceX)提出的一个巨型低轨卫星互联网星座项目,计划在2019年至2024年间在太空搭建由约1.2万颗卫星组成的“星链”网络,其中1584颗将部署在地球上空550千米处的近地轨道,并从2020年开始工作。该卫星仍在工作。
2D轨道图
3D轨道图
轨道高度分析图
轨道倾角分析图
轨道综合分析图
查看轨道综合分析图